Time,TemperatureF,DewpointF,PressureIn,WindDirection,WindDirectionDegrees,WindSpeedMPH,WindSpeedGustMPH,Humidity,HourlyPrecipIn,Conditions,Clouds,dailyrainin,SolarRadiationWatts/m^2,SoftwareType,DateUTC
2015-04-26 00:13:00,68.0,67.0,29.61,South,180,2.0,6.0,95,0.00,,,0.00,0,weatherlink.com 1.10,2015-04-26 04:13:00,
2015-04-26 00:28:00,67.6,67.0,29.60,South,171,1.0,8.0,96,0.00,,,0.00,0,weatherlink.com 1.10,2015-04-26 04:28:00,
2015-04-26 00:43:00,67.1,66.0,29.60,North,360,3.0,4.0,96,0.00,,,0.00,0,weatherlink.com 1.10,2015-04-26 04:43:00,
2015-04-26 00:59:00,66.8,66.0,29.60,NW,304,0.0,3.0,97,0.00,,,0.00,0,weatherlink.com 1.10,2015-04-26 04:59:00,
2015-04-26 01:14:00,66.5,66.0,29.60,NNW,329,1.0,4.0,97,0.00,,,0.00,0,weatherlink.com 1.10,2015-04-26 05:14:00,
2015-04-26 01:29:00,66.2,66.0,29.59,WSW,253,0.0,7.0,98,0.00,,,0.00,0,weatherlink.com 1.10,2015-04-26 05:29:00,
2015-04-26 01:44:00,66.1,66.0,29.59,SW,225,0.0,5.0,98,0.00,,,0.00,0,weatherlink.com 1.10,2015-04-26 05:44:00,
2015-04-26 01:59:00,66.0,66.0,29.59,West,277,1.0,5.0,98,0.00,,,0.00,0,weatherlink.com 1.10,2015-04-26 05:59:00,
2015-04-26 02:14:00,66.0,66.0,29.58,SSE,165,1.0,6.0,98,0.00,,,0.00,0,weatherlink.com 1.10,2015-04-26 06:14:00,
2015-04-26 02:29:00,65.9,65.0,29.58,NE,34,1.0,4.0,98,0.00,,,0.00,0,weatherlink.com 1.10,2015-04-26 06:29:00,
2015-04-26 02:44:00,65.7,65.0,29.59,SSW,210,0.0,3.0,98,0.00,,,0.00,0,weatherlink.com 1.10,2015-04-26 06:44:00,
2015-04-26 02:59:00,65.5,65.0,29.59,SE,146,0.0,2.0,98,0.00,,,0.00,0,weatherlink.com 1.10,2015-04-26 06:59:00,
2015-04-26 03:14:00,65.4,65.0,29.59,SW,227,0.0,4.0,99,0.00,,,0.00,0,weatherlink.com 1.10,2015-04-26 07:14:00,
2015-04-26 03:29:00,65.2,65.0,29.59,SW,223,1.0,4.0,98,0.00,,,0.00,0,weatherlink.com 1.10,2015-04-26 07:29:00,
2015-04-26 03:44:00,65.0,65.0,29.59,SSW,197,0.0,1.0,99,0.00,,,0.00,0,weatherlink.com 1.10,2015-04-26 07:44:00,
2015-04-26 03:59:00,64.6,64.0,29.59,South,169,0.0,3.0,99,0.00,,,0.00,0,weatherlink.com 1.10,2015-04-26 07:59:00,
2015-04-26 04:14:00,64.6,64.0,29.59,WSW,250,1.0,2.0,99,0.00,,,0.00,0,weatherlink.com 1.10,2015-04-26 08:14:00,
2015-04-26 04:29:00,64.4,64.0,29.59,SW,218,1.0,2.0,99,0.00,,,0.00,0,weatherlink.com 1.10,2015-04-26 08:29:00,
2015-04-26 04:44:00,64.1,64.0,29.59,West,264,2.0,3.0,99,0.00,,,0.00,0,weatherlink.com 1.10,2015-04-26 08:44:00,
2015-04-26 04:59:00,64.1,64.0,29.59,WSW,243,0.0,2.0,99,0.00,,,0.00,0,weatherlink.com 1.10,2015-04-26 08:59:00,
2015-04-26 05:14:00,64.0,64.0,29.59,WNW,290,1.0,7.0,99,0.00,,,0.00,0,weatherlink.com 1.10,2015-04-26 09:14:00,
2015-04-26 05:29:00,63.9,64.0,29.59,WSW,237,0.0,2.0,100,0.00,,,0.00,0,weatherlink.com 1.10,2015-04-26 09:29:00,
2015-04-26 05:44:00,63.7,64.0,29.59,SW,215,1.0,4.0,100,0.00,,,0.00,0,weatherlink.com 1.10,2015-04-26 09:44:00,
2015-04-26 05:59:00,63.8,64.0,29.59,SW,223,0.0,2.0,100,0.00,,,0.00,0,weatherlink.com 1.10,2015-04-26 09:59:00,
2015-04-26 06:14:00,63.8,64.0,29.60,WSW,256,2.0,3.0,100,0.00,,,0.00,0,weatherlink.com 1.10,2015-04-26 10:14:00,
2015-04-26 06:29:00,63.9,64.0,29.60,SSE,165,0.0,3.0,100,0.00,,,0.00,0,weatherlink.com 1.10,2015-04-26 10:29:00,
2015-04-26 06:44:00,64.2,64.0,29.60,South,173,0.0,5.0,100,0.00,,,0.00,0,weatherlink.com 1.10,2015-04-26 10:44:00,
2015-04-26 06:59:00,64.3,64.0,29.61,West,267,1.0,4.0,100,0.00,,,0.00,7,weatherlink.com 1.10,2015-04-26 10:59:00,
2015-04-26 07:14:00,64.3,64.0,29.61,WNW,292,2.0,5.0,100,0.00,,,0.00,12,weatherlink.com 1.10,2015-04-26 11:14:00,
2015-04-26 07:29:00,64.7,64.0,29.62,WSW,250,3.0,3.0,99,0.00,,,0.00,25,weatherlink.com 1.10,2015-04-26 11:29:00,
2015-04-26 07:44:00,65.1,65.0,29.62,SSE,148,0.0,6.0,99,0.00,,,0.00,19,weatherlink.com 1.10,2015-04-26 11:44:00,
2015-04-26 07:59:00,65.7,65.0,29.62,West,263,2.0,6.0,98,0.00,,,0.00,40,weatherlink.com 1.10,2015-04-26 11:59:00,
2015-04-26 08:14:00,66.3,66.0,29.63,SW,215,3.0,5.0,97,0.00,,,0.00,53,weatherlink.com 1.10,2015-04-26 12:14:00,
2015-04-26 08:29:00,66.7,66.0,29.63,East,79,4.0,10.0,96,0.00,,,0.00,47,weatherlink.com 1.10,2015-04-26 12:29:00,
2015-04-26 08:44:00,67.2,66.0,29.63,West,265,1.0,10.0,95,0.00,,,0.00,49,weatherlink.com 1.10,2015-04-26 12:44:00,
2015-04-26 08:59:00,67.7,66.0,29.63,SSE,148,2.0,5.0,94,0.00,,,0.00,86,weatherlink.com 1.10,2015-04-26 12:59:00,
2015-04-26 09:14:00,68.5,67.0,29.63,SSW,212,5.0,13.0,93,0.00,,,0.00,88,weatherlink.com 1.10,2015-04-26 13:14:00,
2015-04-26 09:29:00,69.4,67.0,29.63,SE,142,2.0,9.0,91,0.00,,,0.00,91,weatherlink.com 1.10,2015-04-26 13:29:00,
2015-04-26 09:44:00,70.0,67.0,29.63,SE,146,1.0,7.0,90,0.00,,,0.00,76,weatherlink.com 1.10,2015-04-26 13:44:00,
2015-04-26 09:59:00,70.4,67.0,29.63,WNW,301,1.0,9.0,88,0.00,,,0.00,550,weatherlink.com 1.10,2015-04-26 13:59:00,
2015-04-26 10:14:00,71.5,67.0,29.63,SSE,150,3.0,8.0,86,0.00,,,0.00,613,weatherlink.com 1.10,2015-04-26 14:14:00,
2015-04-26 10:45:00,73.1,68.0,29.63,WNW,282,1.0,5.0,83,0.00,,,0.00,322,weatherlink.com 1.10,2015-04-26 14:45:00,
2015-04-26 11:00:00,73.7,67.0,29.63,SSW,213,1.0,9.0,80,0.00,,,0.00,287,weatherlink.com 1.10,2015-04-26 15:00:00,
2015-04-26 11:15:00,74.2,68.0,29.63,SW,219,4.0,8.0,80,0.00,,,0.00,775,weatherlink.com 1.10,2015-04-26 15:15:00,
2015-04-26 11:30:00,74.8,68.0,29.63,West,259,2.0,9.0,78,0.00,,,0.00,374,weatherlink.com 1.10,2015-04-26 15:30:00,
2015-04-26 11:45:00,75.6,68.0,29.62,South,176,1.0,11.0,77,0.00,,,0.00,842,weatherlink.com 1.10,2015-04-26 15:45:00,
2015-04-26 12:00:00,76.6,69.0,29.62,West,279,2.0,7.0,76,0.00,,,0.00,868,weatherlink.com 1.10,2015-04-26 16:00:00,
2015-04-26 12:15:00,78.2,68.0,29.62,SSW,211,3.0,6.0,72,0.00,,,0.00,896,weatherlink.com 1.10,2015-04-26 16:15:00,
2015-04-26 12:30:00,78.6,68.0,29.62,WNW,300,3.0,10.0,70,0.00,,,0.00,923,weatherlink.com 1.10,2015-04-26 16:30:00,
2015-04-26 12:45:00,79.3,68.0,29.62,West,273,2.0,12.0,68,0.00,,,0.00,960,weatherlink.com 1.10,2015-04-26 16:45:00,
2015-04-26 13:00:00,80.0,69.0,29.61,West,271,4.0,10.0,70,0.00,,,0.00,962,weatherlink.com 1.10,2015-04-26 17:00:00,
2015-04-26 13:15:00,80.6,66.0,29.61,East,83,5.0,10.0,62,0.00,,,0.00,942,weatherlink.com 1.10,2015-04-26 17:15:00,
2015-04-26 13:30:00,80.6,66.0,29.60,WSW,245,2.0,10.0,62,0.00,,,0.00,958,weatherlink.com 1.10,2015-04-26 17:30:00,
2015-04-26 13:45:00,82.1,67.0,29.60,WNW,288,1.0,9.0,60,0.00,,,0.00,1042,weatherlink.com 1.10,2015-04-26 17:45:00,
2015-04-26 14:00:00,82.6,67.0,29.60,North,360,2.0,11.0,59,0.00,,,0.00,935,weatherlink.com 1.10,2015-04-26 18:00:00,
2015-04-26 14:15:00,82.3,65.0,29.60,SE,140,1.0,11.0,56,0.00,,,0.00,951,weatherlink.com 1.10,2015-04-26 18:15:00,
2015-04-26 14:30:00,82.0,64.0,29.59,South,188,2.0,9.0,54,0.00,,,0.00,981,weatherlink.com 1.10,2015-04-26 18:30:00,
2015-04-26 14:45:00,82.3,64.0,29.59,NW,306,3.0,11.0,54,0.00,,,0.00,993,weatherlink.com 1.10,2015-04-26 18:45:00,
2015-04-26 15:00:00,83.3,63.0,29.59,NE,53,1.0,13.0,51,0.00,,,0.00,884,weatherlink.com 1.10,2015-04-26 19:00:00,
2015-04-26 15:15:00,82.5,63.0,29.58,SW,229,12.0,12.0,52,0.00,,,0.00,185,weatherlink.com 1.10,2015-04-26 19:15:00,
2015-04-26 15:31:00,83.2,65.0,29.58,SE,125,2.0,8.0,54,0.00,,,0.00,884,weatherlink.com 1.10,2015-04-26 19:31:00,
2015-04-26 15:46:00,83.6,63.0,29.57,ENE,67,3.0,10.0,50,0.00,,,0.00,814,weatherlink.com 1.10,2015-04-26 19:46:00,
2015-04-26 16:00:00,84.1,64.0,29.57,SW,232,3.0,9.0,51,0.00,,,0.00,770,weatherlink.com 1.10,2015-04-26 20:00:00,
2015-04-26 16:30:00,84.6,63.0,29.56,SE,136,2.0,10.0,48,0.00,,,0.00,167,weatherlink.com 1.10,2015-04-26 20:30:00,
2015-04-26 16:45:00,82.8,63.0,29.56,West,275,2.0,8.0,52,0.00,,,0.00,777,weatherlink.com 1.10,2015-04-26 20:45:00,
2015-04-26 17:00:00,82.9,63.0,29.56,ENE,67,2.0,13.0,51,0.00,,,0.00,223,weatherlink.com 1.10,2015-04-26 21:00:00,
2015-04-26 17:16:00,83.1,63.0,29.56,SSE,164,2.0,11.0,51,0.00,,,0.00,193,weatherlink.com 1.10,2015-04-26 21:16:00,
2015-04-26 17:30:00,80.8,63.0,29.57,WNW,284,2.0,4.0,55,0.00,,,0.00,76,weatherlink.com 1.10,2015-04-26 21:30:00,
2015-04-26 17:45:00,80.6,63.0,29.57,SSW,205,1.0,11.0,56,0.00,,,0.00,62,weatherlink.com 1.10,2015-04-26 21:45:00,